Flag for Luxembourg Weather past 2 weeks in Luxembourg, Luxembourg

Now
32 °F

Heavy snow. Ice fog.


Feels Like: 24 °F
Forecast: 29 / 33 °F
Wind: 10 mph from Southwest

Location: Luxembourg Airport

Current Time: Feb 1, 2015 at 6:03:26 PM

Latest Report: Feb 1, 2015 at 5:20 PM


Visibility: 1 mi

Pressure: 29.30 "Hg

Humidity: 100%

Dew point: 32 °F

Location of LuxembourgLocation

Historic Weather in Luxembourg — Graph

°F

Luxembourg temperature yesterday

Maximum temperature yesterday: 32 °F (at 5:20 AM)
Minimum temperature yesterday: 30 °F (at 12:20 AM)
Average temperature yesterday: 31 °F

Past Weeks' High & Low Weather Summary

 TemperatureHumidityPressure
High41 °F (Jan 28, 7:20 PM)100% (Jan 17, 5:50 PM)30.42 "Hg (Jan 17, 5:50 PM)
Low25 °F (Jan 21, 2:20 AM)69% (Jan 20, 5:20 PM)28.71 "Hg (Jan 30, 12:50 AM)
Average32 °F95%29.78 "Hg
* Reported Jan 17 4:20 PM — Feb 1 4:50 PM, Luxembourg, Weather by CustomWeather, © 2014

Note: Actual official high and low records may vary slightly from our data, if they occured in-between our weather recording intervals... More about our weather records

Advertising

Luxembourg weather history for previous 24 hours

 ConditionsComfort  
Time TempWeatherWind HumidityBarometerVisibility
4:50 PM
Feb 1
34 °FPartly sunny.12 mph93%29.30 "HgN/A
4:20 PM34 °FSnow flurries. Partly sunny.12 mph93%29.30 "Hg3 mi
3:50 PM32 °FSnow flurries. Partly sunny.12 mph100%29.30 "Hg3 mi
3:20 PM32 °FLow clouds.9 mph100%29.30 "Hg4 mi
2:50 PM32 °FSnow flurries. Ice fog.10 mph100%29.27 "Hg2 mi
2:20 PM32 °FLow clouds.13 mph100%29.27 "Hg2 mi
1:50 PM32 °FMostly cloudy.14 mph100%29.27 "HgN/A
1:20 PM34 °FBroken clouds.13 mph93%29.27 "HgN/A
12:50 PM34 °FPartly sunny.15 mph93%29.27 "Hg5 mi
12:20 PM34 °FSnow flurries. Broken clouds.14 mph93%29.27 "Hg6 mi
11:50 AM34 °FBroken clouds.12 mph93%29.27 "HgN/A
11:20 AM34 °FPartly sunny.9 mph100%29.24 "HgN/A
10:50 AM32 °FSnow flurries. Broken clouds.8 mph100%29.24 "Hg6 mi
10:20 AM32 °FSnow flurries. Broken clouds.9 mph100%29.24 "Hg4 mi
9:50 AM32 °FBroken clouds.9 mph100%29.21 "Hg5 mi
9:20 AM32 °FSnow flurries. Ice fog.7 mph100%29.21 "Hg1 mi
8:50 AM30 °FLight snow. Ice fog.3 mph100%29.21 "Hg1 mi
8:20 AM30 °FSnow. Ice fog.3 mph100%29.18 "Hg1 mi
7:50 AM30 °FLight snow. Ice fog.3 mph93%29.18 "Hg1 mi
7:20 AM30 °FIce fog.1 mph93%29.18 "Hg2 mi
6:50 AM30 °FPartly cloudy.2 mph93%29.15 "Hg3 mi
6:20 AM28 °FPartly cloudy.3 mph100%29.15 "Hg2 mi
5:50 AM28 °FChilly.6 mph93%29.15 "Hg4 mi
5:20 AM28 °FPassing clouds.7 mph100%29.15 "Hg4 mi
4:50 AM28 °FChilly.5 mph93%29.15 "Hg4 mi
4:20 AM30 °FPassing clouds.5 mph100%29.15 "Hg6 mi
3:50 AM30 °FPassing clouds.8 mph100%29.12 "Hg6 mi
3:20 AM30 °FChilly.7 mph93%29.12 "Hg6 mi
2:50 AM30 °FChilly.7 mph100%29.12 "Hg6 mi
2:20 AM30 °FChilly.5 mph100%29.12 "Hg4 mi
1:50 AM30 °FChilly.6 mph100%29.09 "Hg3 mi
1:20 AM30 °FPassing clouds.5 mph100%29.09 "Hg2 mi
12:50 AM30 °FPassing clouds.5 mph100%29.09 "Hg3 mi
12:20 AM30 °FIce fog.3 mph100%29.09 "Hg2 mi
11:50 PM
Jan 31
30 °FLight snow. Ice fog.2 mph100%29.09 "Hg2 mi
11:20 PM30 °FLight snow. Ice fog.2 mph100%29.09 "Hg1 mi
10:50 PM30 °FLight snow. Ice fog.1 mph100%29.06 "Hg1 mi
10:20 PM30 °FLight snow. Ice fog.2 mph100%29.06 "Hg1 mi
9:50 PM30 °FLight snow. Ice fog.1 mph100%29.06 "Hg1 mi
9:20 PM30 °FLight snow. Ice fog.2 mph100%29.06 "Hg1 mi
8:50 PM30 °FLight snow. Passing clouds.3 mph100%29.06 "Hg2 mi
8:20 PM30 °FLight snow. Ice fog.3 mph100%29.06 "Hg2 mi
7:50 PM30 °FHeavy snow. Low clouds.5 mph100%29.06 "Hg0 mi
7:20 PM30 °FSnow. Passing clouds.5 mph100%29.06 "Hg1 mi
6:50 PM32 °FLight snow. Passing clouds.6 mph93%29.06 "Hg3 mi
6:20 PM32 °FPassing clouds.6 mph93%29.06 "Hg3 mi
Weather by CustomWeather, © 2014

See weather overviewHow to use our weather pages